SCP
2 2 2 2 1 1 1 1 1 1 1 1 0 0 0 0 0 0 0 1 0 0 0 0 0 0 0 0 0 0 0 0 0 0 0 0 0 0 0 0 0 0 0
2 2 2 2 1 1 1 1 1 1 1 1 1 0 0 0 0 0 0 0 0 0 0 0 0 0 0 0 0 0 0 0 0 0 0 0 0 0 0 0 0 0 0
2 2 2 1 1 1 1 1 1 1 1 1 1 1 1 1 1 0 0 1 1 0 0 0 0 0 0 0 0 0 0 0 0 0 0 0 0 0 0 0 0 0 0
2 2 2 1 1 1 1 1 1 1 1 1 1 1 1 1 1 1 1 1 1 1 1 1 1 1 0 0 0 0 0 0 0 0 0 0 0 0 0 0 0 0 0
1 1 1 1 1 1 1 1 1 1 1 1 1 1 1 1 1 1 1 1 1 1 1 0 1 0 0 0 0 0 0 0 0 0 0 0 0 0 0 0 0 0 0
1 1 1 1 1 1 1 1 1 1 1 1 1 1 1 1 1 1 1 1 1 0 0 0 0 0 0 0 0 0 0 0 0 0 0 0 0 0 0 0 0 0 0
1 1 1 1 1 1 1 1 1 1 1 1 1 1 0 0 0 0 0 0 0 0 0 0 0 0 0 0 0 0 0 0 0 0 0 0 0 0 0 0 0 0 0
1 1 1 1 1 1 1 1 1 1 1 1 1 0 0 0 0 0 0 0 0 0 0 0 0 0 0 0 0 0 0 0 0 0 0 0 0 0 0 0 0 0 0
1 1 1 1 1 1 1 1 1 1 1 1 1 0 0 0 0 0 0 0 0 0 0 0 0 0 0 0 0 0 0 0 0 0 0 0 0 0 0 0 0 0 0
0 0 0 0 1 1 1 1 1 1 1 0 0 0 0 0 0 0 0 0 0 0 0 0 0 0 0 0 0 0 0 0 0 0 0 0 0 0 0 0 0 0 0
0 0 0 0 0 1 1 1 1 0 0 0 0 0 0 0 0 0 0 0 0 0 0 0 0 0 0 0 0 0 0 0 0 0 0 0 0 0 0 0 0 0 0
0 0 0 0 0 0 0 0 0 0 0 0 0 0 0 0 0 0 0 0 0 0 0 0 0 0 0 0 0 0 0 0 0 0 0 0 0 0 0 0 0 0 0
0 0 0 0 0 0 0 0 0 0 0 0 0 0 0 0 0 0 0 0 0 0 0 0 0 0 0 0 0 0 0 0 0 0 0 0 0 0 0 0 0 0 0
0 0 0 0 0 0 0 0 0 0 0 0 0 0 0 0 0 0 0 0 0 0 0 0 0 0 0 0 0 0 0 0 0 0 0 0 0 0 0 0 0 0 0
0 0 0 0 0 0 0 0 0 0 0 0 0 0 0 0 0 0 0 0 0 0 0 0 0 0 0 0 0 0 0 0 0 0 0 0 0 0 -0 0 0 0 0
0 0 0 0 0 0 0 0 0 0 0 0 0 0 0 0 0 0 0 0 0 0 0 0 0 0 0 0 0 0 0 0 0 0 0 -0 -0 0 0 0 0 0 0
0 0 0 0 0 0 0 0 0 0 0 0 0 0 0 0 0 0 0 0 0 0 0 0 0 0 0 0 0 0 0 0 0 0 0 0 0 0 0 0 0 0 0
0 0 0 0 0 0 0 0 0 0 0 0 0 0 0 0 0 0 0 0 0 0 0 0 0 0 0 0 0 0 0 0 0 0 0 0 0 0 0 0 0 0 0
0 0 0 0 0 0 0 0 0 0 0 0 0 0 0 0 0 0 0 0 0 0 0 0 0 0 0 0 0 0 0 0 0 0 0 0 0 0 0 0 0 0 0
0 0 0 0 0 0 0 0 0 0 0 0 0 0 0 0 0 0 0 0 0 0 0 0 0 0 0 0 0 0 0 0 0 0 0 0 0 0 0 0 0 0 0
0 0 0 0 0 0 0 0 0 0 0 0 0 0 0 0 0 0 0 0 0 0 0 0 0 0 0 0 0 0 0 0 0 0 0 0 0 0 0 0 0 0 0
0 0 0 0 0 0 0 0 0 0 0 0 0 0 0 0 0 0 0 0 0 0 0 0 0 0 0 0 0 0 0 0 0 0 0 0 0 0 0 0 0 0 0
0 0 0 0 0 0 0 0 0 0 0 0 0 0 0 0 0 0 0 0 0 0 0 0 0 0 0 0 0 0 0 0 0 0 0 0 0 0 0 0 0 0 0
0 0 0 0 0 0 0 0 0 0 0 0 0 0 0 0 0 0 0 0 0 0 0 0 0 0 0 0 0 0 0 0 0 0 0 0 0 0 0 0 0 0 0
0 0 0 0 0 0 0 0 0 0 0 0 0 0 0 0 0 0 0 0 0 0 0 0 0 0 0 0 0 0 0 0 0 0 0 0 0 0 0 0 0 0 0
0 0 0 0 0 0 0 0 0 0 0 0 0 0 0 0 0 0 0 0 0 0 0 0 0 0 0 0 0 0 0 0 0 0 0 0 0 0 0 0 0 0 0
Wind_Speed
6 6 5 5 7 6 7 7 7 8 8 8 8 8 7 7 6 5 4 9 7 6 6 7 7 8 7 7 6 6 5 5 4 4 4 3 3 3 3 3 3 2 2
6 6 6 6 6 5 6 6 7 7 7 6 7 7 7 7 6 6 4 7 8 6 5 6 7 7 7 7 7 6 5 5 5 4 4 4 4 5 5 5 5 5 5
5 5 5 5 6 5 6 6 7 6 6 6 7 6 5 5 5 5 5 4 6 8 6 5 6 7 7 7 7 7 7 6 7 7 7 8 8 8 8 8 8 8 8
5 5 5 5 5 5 6 6 6 7 6 6 5 4 4 3 4 4 4 4 3 4 7 8 7 7 7 8 8 8 9 9 9 9 9 10 10 10 10 10 9 9 8
5 6 5 4 5 5 6 7 6 6 6 6 4 3 2 2 2 2 2 2 2 3 4 9 10 8 8 9 9 9 10 11 11 11 11 11 11 12 11 11 11 10 10
4 4 4 5 6 6 6 6 6 6 6 5 4 3 2 1 2 2 2 2 2 3 4 5 6 7 10 10 11 11 11 12 12 12 12 12 12 11 11 11 11 10 10
3 3 4 5 6 6 7 7 6 7 5 5 5 3 2 2 2 2 2 2 3 3 3 3 3 4 6 10 11 12 12 13 13 13 13 13 12 12 11 11 11 11 10
2 3 4 4 5 5 7 7 7 6 5 6 5 5 4 3 2 2 2 3 3 3 4 4 4 4 4 5 9 12 13 13 14 13 13 12 12 12 11 10 10 9 9
1 2 3 4 5 5 4 6 7 8 6 6 5 5 5 5 4 3 2 3 3 3 4 4 5 5 6 5 7 11 13 12 12 12 12 12 11 11 10 10 9 9 8
3 2 3 3 4 4 4 5 6 6 7 6 4 3 2 3 5 5 3 3 4 4 5 5 5 5 6 6 8 12 13 12 12 12 11 11 10 10 9 9 8 8 8
3 3 3 3 2 2 2 3 3 5 5 6 4 4 3 2 3 5 5 5 4 4 4 5 5 5 5 6 6 11 13 12 11 11 11 10 9 9 8 8 8 8 8
3 5 3 3 3 2 2 1 0 1 2 3 3 4 4 4 4 4 6 7 5 4 4 4 4 4 4 5 9 12 12 11 10 9 9 8 8 8 7 7 7 7 7
4 5 4 4 4 4 4 3 3 2 1 2 2 2 2 2 3 3 7 6 5 4 3 3 2 2 3 4 7 10 10 9 8 8 7 7 6 6 6 6 6 6 6
4 5 5 6 6 5 5 5 5 5 4 4 4 3 2 3 3 4 6 8 7 4 3 3 2 2 2 4 7 4 7 7 7 6 6 6 6 5 5 5 5 5 5
6 7 7 7 7 7 7 6 6 6 6 6 5 5 4 3 4 4 5 6 7 7 4 4 4 4 3 4 5 4 6 7 6 6 6 5 5 5 5 4 4 4 3
7 8 8 8 8 8 8 8 7 7 8 7 6 7 6 5 5 5 5 4 4 6 6 5 4 6 5 6 5 4 5 8 6 6 6 6 6 5 5 4 4 3 2
8 9 9 9 9 9 9 9 9 9 9 9 8 9 9 8 6 5 5 5 5 6 9 7 6 7 6 5 5 4 5 5 6 7 6 6 6 6 6 5 4 4 3
9 9 9 10 9 10 10 10 10 10 10 10 10 10 9 8 8 6 6 7 6 6 9 10 8 7 7 5 5 4 3 3 4 8 7 7 7 7 6 6 5 5 4
10 10 9 10 10 10 10 10 10 11 10 11 11 11 10 10 10 8 7 7 7 7 8 9 8 6 6 5 5 4 4 2 3 8 8 9 8 7 7 7 6 6 5
9 9 9 10 10 10 10 10 10 11 11 11 11 11 10 10 9 9 8 8 8 8 8 7 7 7 6 5 3 3 4 4 2 3 4 5 7 9 9 8 8 7 7
10 9 9 10 10 9 9 9 10 11 11 12 12 12 12 13 13 9 7 7 7 6 6 6 6 5 5 3 2 1 1 2 3 1 2 3 5 6 8 10 9 8 7
9 9 10 10 11 9 10 11 9 10 10 11 11 11 11 12 14 14 15 14 10 6 5 4 5 5 4 3 2 0 0 1 2 2 2 2 2 2 3 2 6 7 6
9 9 10 11 11 11 11 11 10 10 11 10 10 9 9 9 9 11 10 10 11 11 8 4 6 5 4 3 1 1 2 3 3 2 3 2 2 2 2 4 9 6 6
7 8 9 10 10 10 9 8 7 10 11 11 10 10 10 10 9 6 8 9 8 7 5 5 5 4 5 3 2 2 1 2 3 2 2 3 2 2 2 1 10 8 8
8 8 9 9 10 9 9 9 6 8 9 10 10 10 9 10 9 8 6 7 7 6 6 5 5 4 4 3 4 4 2 2 1 1 0 3 3 3 2 2 6 11 10
8 8 9 9 9 9 9 11 9 6 7 7 8 9 12 9 9 9 5 6 6 5 4 5 4 4 4 4 3 4 5 4 3 2 2 3 4 4 3 2 1 4 7
Wind_Direction
209 203 206 208 212 204 200 210 215 205 208 209 217 216 224 225 232 227 153 146 163 178 186 190 187 182 180 179 178 174 171 169 170 162 159 159 158 149 133 125 120 121 121
214 213 212 213 222 215 214 216 213 206 212 212 213 212 221 221 216 220 204 151 149 157 165 175 175 176 176 172 165 158 152 149 144 137 130 123 118 116 112 103 97 94 89
214 214 221 218 223 219 213 222 221 212 208 207 210 211 216 227 218 213 211 197 164 149 143 142 150 156 159 158 151 145 138 129 121 114 110 107 103 103 102 100 95 89 86
219 217 221 225 222 219 211 213 216 213 209 207 206 209 209 210 217 211 211 195 186 157 133 122 122 130 138 141 138 134 128 119 114 110 106 102 99 97 95 94 92 91 88
237 231 229 229 223 224 215 215 207 210 205 198 190 184 189 179 172 185 177 161 140 136 132 119 113 115 122 125 128 128 122 117 113 109 106 103 101 98 95 92 89 87 83
241 246 242 231 230 228 221 216 205 206 203 187 172 143 127 140 135 132 141 133 134 140 142 137 128 109 107 112 115 118 120 118 114 110 107 105 102 99 97 95 91 87 83
248 247 253 236 237 232 225 216 203 197 191 169 156 147 123 94 102 116 127 132 123 117 115 127 125 128 118 110 109 113 113 112 110 108 105 103 100 99 97 95 91 87 82
276 253 253 254 246 237 229 215 203 199 191 184 178 166 172 164 136 112 127 130 122 116 113 111 112 117 121 117 105 109 109 109 109 106 105 102 99 97 96 93 90 88 85
348 319 279 261 256 244 234 222 211 205 199 198 197 182 184 190 150 117 101 101 106 103 101 101 103 108 108 109 116 104 104 105 107 108 106 103 101 99 97 93 90 87 86
16 356 323 293 269 258 249 235 222 216 202 197 198 205 208 156 161 143 123 105 101 99 95 97 93 91 93 91 93 98 97 98 103 105 104 103 100 97 94 91 89 86 83
26 10 358 347 322 286 264 243 239 225 212 203 191 176 169 169 180 154 151 145 113 88 89 88 87 86 86 95 100 100 96 95 98 101 101 100 99 97 95 93 87 80 76
38 30 20 23 21 23 354 312 265 231 206 197 191 180 171 172 178 160 149 148 129 99 79 76 86 90 94 101 105 109 106 102 97 95 96 96 96 95 95 91 85 79 73
42 32 32 38 36 40 44 51 65 50 58 126 140 168 168 159 145 141 137 134 121 110 98 78 74 99 115 113 115 120 118 113 109 107 105 103 103 101 98 93 86 79 71
51 47 55 59 54 52 54 56 58 56 57 68 74 86 106 111 128 140 143 140 129 116 112 118 114 139 134 126 114 141 127 130 133 134 132 128 123 117 111 103 93 84 75
58 54 59 63 61 60 61 64 62 59 62 66 74 79 80 86 105 116 129 141 140 138 134 155 160 157 153 127 138 155 138 140 160 164 159 153 147 141 134 126 117 105 92
64 62 59 59 60 62 64 66 70 66 68 65 66 74 78 83 92 107 122 119 120 130 131 147 147 150 153 147 158 163 142 155 178 181 179 175 170 165 162 160 157 149 139
65 66 64 64 62 62 65 67 70 72 73 71 69 74 77 79 87 95 108 114 120 123 124 128 131 136 147 155 155 181 173 193 163 173 181 185 188 185 182 183 185 187 190
67 67 66 67 66 65 64 66 68 68 71 73 74 77 79 85 87 89 96 101 104 113 128 131 138 144 153 160 162 192 181 196 160 151 176 186 191 193 196 199 201 204 206
69 67 67 68 67 67 67 67 68 66 65 67 71 76 80 86 88 89 97 104 113 119 125 132 133 136 146 151 168 178 166 190 185 156 175 184 186 193 200 204 210 213 214
68 67 69 68 67 68 69 72 73 72 70 68 66 68 71 76 81 91 93 99 108 117 125 130 133 140 142 151 177 171 166 172 188 175 179 186 183 196 201 203 208 212 216
72 70 71 69 65 62 55 63 77 77 75 74 71 70 68 68 58 60 79 92 107 118 125 126 129 134 129 148 149 154 152 178 165 214 234 205 192 205 194 199 203 207 217
75 74 73 72 67 61 42 40 58 76 75 75 77 81 87 81 77 68 62 58 54 74 90 108 114 109 108 103 83 358 298 244 160 129 281 252 241 247 226 189 150 182 213
81 80 79 78 75 60 44 46 47 73 73 69 68 70 76 81 87 95 95 93 72 55 44 43 84 83 98 83 30 92 48 351 5 26 301 285 264 268 254 130 152 192 219
79 79 79 79 77 62 41 40 49 78 75 71 68 69 72 69 54 57 90 89 88 74 51 59 70 65 67 57 14 349 328 253 230 212 285 298 324 310 301 161 166 199 219
81 80 80 80 79 68 34 18 13 87 81 75 68 60 65 74 31 3 78 89 91 98 100 73 52 50 35 358 328 300 303 301 316 113 273 310 323 309 282 232 172 193 212
88 87 81 78 78 71 38 17 355 85 89 92 91 87 63 48 26 5 53 76 84 80 92 126 142 177 184 176 225 289 324 329 330 348 49 316 322 320 308 285 268 197 212